This is the latest recevied weather packets stored in our database for station/object KK6LZB. If no packets are shown the sender has not sent any weather packets the latest 10 day(s).
| Time | Temp. | Humidity | Pressure | Rain* | Wind** | Luminosity | Snow |
|---|---|---|---|---|---|---|---|
| 1777742201 | 18.89° C | 85% | 1016.8 hPa | 0 mm | - | 134 W/m² | - |
| 1777741898 | 18.89° C | 86% | 1017 hPa | 0 mm | - | 123 W/m² | - |
| 1777741595 | 18.33° C | 87% | 1016.7 hPa | 0 mm | - | 126 W/m² | - |
| 1777741292 | 17.78° C | 88% | 1016.7 hPa | 0 mm | - | 134 W/m² | - |
| 1777740988 | 17.78° C | 88% | 1016.8 hPa | 0 mm | - | 127 W/m² | - |
| 1777740685 | 17.22° C | 88% | 1017 hPa | 0 mm | - | 108 W/m² | - |
| 1777740381 | 17.78° C | 88% | 1017.2 hPa | 0 mm | - | 102 W/m² | - |
| 1777740078 | 17.78° C | 88% | 1017.3 hPa | 0 mm | - | 108 W/m² | - |
| 1777739775 | 17.78° C | 89% | 1016.9 hPa | 0 mm | - | 136 W/m² | - |
| 1777739471 | 17.22° C | 91% | 1017 hPa | 0 mm | - | 146 W/m² | - |
| 1777739168 | 17.22° C | 93% | 1017.1 hPa | 0 mm | - | 147 W/m² | - |
| 1777738865 | 16.11° C | 94% | 1016.6 hPa | 0 mm | - | 160 W/m² | - |
| 1777738562 | 16.11° C | 95% | 1016.8 hPa | 0 mm | - | 141 W/m² | - |
| 1777738259 | 15.56° C | 96% | 1017 hPa | 0 mm | - | 110 W/m² | - |
| 1777737957 | 15.56° C | 97% | 1017 hPa | 0 mm | - | 81 W/m² | - |
| 1777737655 | 15.56° C | 97% | 1016.8 hPa | 0 mm | - | 64 W/m² | - |
| 1777737354 | 15.56° C | 98% | 1016.9 hPa | 0 mm | - | 59 W/m² | - |
| 1777737051 | 15° C | 98% | 1016.8 hPa | 0 mm | - | 42 W/m² | - |
| 1777736746 | 15° C | 98% | 1017 hPa | 0 mm | - | 52 W/m² | - |
| 1777736118 | 15° C | 98% | 1017 hPa | 0 mm | - | 45 W/m² | - |
| 1777735810 | 15° C | 98% | 1016.8 hPa | 0 mm | - | 42 W/m² | - |
| 1777735507 | 15° C | 99% | 1016.9 hPa | 0 mm | - | 40 W/m² | - |
| 1777735205 | 15° C | 99% | 1017 hPa | 0 mm | - | 38 W/m² | - |
| 1777734901 | 15° C | 99% | 1016.9 hPa | 0 mm | - | 37 W/m² | - |
| 1777734599 | 15° C | 99% | 1016.8 hPa | 0 mm | - | 35 W/m² | - |
* Rain latest hour (hover to see other rain measurements)
** Current wind speed in m/s (hover to see current wind gust speed)